Location: Adamstown South Public School
(32.9318°S, 151.7012°E)
Time: 01:29:56
(UTC+00:00)

AQUARIUS - Pass Details

Date: 07 June 2020
Orbit: 650 x 652 km, 98.0° (Epoch: 13 July)

Event Time Altitude Azimuth Distance (km) Brightness Sun altitude
Exits shadow 07:46:52 - 158° (SSE) 2,637 6.9 -11.1°
Reaches altitude 10° 07:48:17 10° 154° (SSE) 2,084 6.3 -11.4°
Maximum altitude 07:52:38 45° 81° (E) 902 4.5 -12.3°
Drops below altitude 10° 07:56:56 10° 8° (N) 2,057 6.9 -13.1°
Sets 07:59:13 0° 1° (N) 2,960 7.8 -13.6°
